Home   Weather   Schwerin   Past weeks

Flag for Germany Past Weather in Schwerin, Mecklenburg-Western Pomerania, Germany — Yesterday and Last 2 Weeks

Now
41 °F

Light rain. Passing clouds.


Feels Like: 32 °F
Forecast: 32 / 42 °F
Wind: 17 mph from West

Location: Laage

Current Time: Feb 24, 2017 at 2:41:16 am

Latest Report: Feb 24, 2017 at 1:20 am


Visibility: N/A

Pressure: 28.97 "Hg

Humidity: 93%

Dew Point: 39 °F

Location of SchwerinLocation

Past Weather in Schwerin — Graph

°F

Schwerin Temperature Yesterday

Maximum temperature yesterday: 46 °F (at 6:11 pm)
Minimum temperature yesterday: 39 °F (at 1:05 pm)
Average temperature yesterday: 42 °F

High & Low Weather Summary for the Past Weeks

 TemperatureHumidityPressure
High50 °F (Feb 16, 12:56 pm)100% (Feb 17, 10:20 am)30.69 "Hg (Feb 17, 10:20 am)
Low19 °F (Feb 9, 11:20 pm)46% (Feb 15, 2:20 pm)28.94 "Hg (Feb 23, 10:20 pm)
Average35 °F81%30.12 "Hg
* Reported Feb 9 1:20 am — Feb 24 1:20 am, Schwerin, Weather by CustomWeather, © 2017

Note: Actual official high and low records may vary slightly from our data, if they occured in-between our weather recording intervals... More about our weather records

Advertising

Schwerin Weather History for the Previous 24 Hours

Scroll right to see more
 ConditionsComfort  
Time TempWeatherWind HumidityBarometerVisibility
1:20 am
Fri, Feb 24
41 °FLight rain. Passing clouds.17 mph93%28.97 "HgN/A
12:20 am41 °FLight rain. Passing clouds.15 mph93%28.94 "HgN/A
11:20 pm
Thu, Feb 23
41 °FLight rain. Passing clouds.9 mph93%28.94 "HgN/A
10:20 pm43 °FPassing clouds.17 mph81%28.94 "HgN/A
9:45 pm43 °FPassing clouds.13 mph87%28.97 "HgN/A
9:20 pm43 °FPassing clouds.12 mph87%28.97 "HgN/A
8:20 pm43 °FPassing clouds.12 mph87%28.97 "HgN/A
8:05 pm43 °FPassing clouds.10 mph93%28.97 "HgN/A
7:20 pm45 °FPartly cloudy.17 mph81%29.00 "HgN/A
7:03 pm45 °FRain showers. Passing clouds.18 mph87%29.00 "HgN/A
6:49 pm45 °FThunderstorms. Partly cloudy.14 mph87%29.00 "HgN/A
6:31 pm46 °FRain showers. Fog.20 mph82%29.00 "Hg2 mi
6:11 pm46 °FPassing clouds.13 mph93%29.00 "HgN/A
5:28 pm45 °FRain. Partly sunny.9 mph93%29.03 "Hg5 mi
5:06 pm43 °FLight rain. Partly sunny.8 mph100%29.06 "HgN/A
4:20 pm41 °FPartly sunny.7 mph100%29.12 "HgN/A
3:55 pm41 °FLight rain. Partly sunny.7 mph93%29.12 "HgN/A
3:20 pm39 °FRain. Partly sunny.7 mph100%29.18 "HgN/A
3:06 pm39 °FRain. Broken clouds.7 mph93%29.18 "Hg4 mi
2:35 pm39 °FDrizzle. Cloudy.7 mph93%29.21 "Hg4 mi
1:55 pm39 °FRain. Cloudy.7 mph93%29.27 "Hg4 mi
1:20 pm39 °FDrizzle. Broken clouds.9 mph93%29.30 "Hg4 mi
1:05 pm39 °FLight rain. Partly sunny.7 mph93%29.33 "Hg4 mi
12:20 pm41 °FLight rain. Mostly cloudy.12 mph81%29.33 "HgN/A
11:20 am43 °FMostly cloudy.12 mph81%29.36 "HgN/A
10:20 am43 °FMore clouds than sun.9 mph76%29.39 "HgN/A
9:26 am43 °FPartly sunny.12 mph76%29.39 "HgN/A
8:20 am43 °FPartly sunny.17 mph76%29.42 "HgN/A
7:20 am43 °FPartly sunny.18 mph71%29.42 "HgN/A
6:20 am43 °FPartly cloudy.20 mph71%29.42 "HgN/A
5:20 am43 °FPassing clouds.24 mph71%29.39 "HgN/A
4:20 am43 °FPassing clouds.24 mph71%29.39 "HgN/A
3:20 am43 °FPassing clouds.23 mph71%29.39 "HgN/A
2:20 am43 °FPassing clouds.24 mph71%29.36 "HgN/A
Weather by CustomWeather, © 2017

See weather overviewHow to use our weather pages